[[[{"header":{"parameterUnit":"kt","parameterCategory":2,"dx":1,"dy":1,"la1":30.253999710083008,"la2":30.299108505249023,"lo1":-89.0895004272461,"lo2":-89.04439544677734,"nx":28,"ny":28,"refTime":"2022-10-30T21:00:00:Z","depth":"0","parameterNumber":2,"parameterNumberName":"U-component_of_CURRENTS"},"data":[-0.2319,-0.2196,-0.217,-0.1932,-0.1883,-0.1719,-0.169,-0.1654,-0.1631,-0.146,-0.1237,-0.1168,-0.1351,-0.1956,-0.2012,-0.1925,-0.2023,-0.1871,-0.2061,-0.2248,-0.2317,-0.2383,-0.2327,-0.1742,-0.1743,-0.1771,-0.1772,-0.1772,-0.2436,-0.2398,-0.2344,-0.2315,-0.2216,-0.2332,-0.24,-0.2362,-0.2409,-0.2518,-0.2608,-0.2393,-0.2265,-0.2265,-0.2127,-0.205,-0.2103,-0.2078,-0.2267,-0.2248,-0.2392,-0.231,-0.1712,-0.1712,-0.1712,-0.1712,-0.1712,-0.1712,-0.2638,-0.2601,-0.2611,-0.2609,-0.263,-0.2641,-0.2627,-0.2832,-0.2962,-0.3133,-0.3457,-0.3358,-0.3341,-0.2949,-0.2888,-0.2659,-0.2877,-0.2638,-0.2789,-0.2936,-0.2793,-0.2835,-0.2498,-0.2501,-0.2505,-0.2507,-0.251,0,-0.2816,-0.2837,-0.2888,-0.2892,-0.2942,-0.3029,-0.3175,-0.3252,-0.3601,-0.3762,-0.3965,-0.4023,-0.3947,-0.368,-0.3447,-0.3366,-0.3614,-0.3497,-0.3567,-0.3283,-0.3258,-0.3141,-0.3468,-0.3289,-0.3298,-0.3304,-0.3309,-0.3312,-0.2977,-0.2999,-0.3164,-0.3171,-0.3263,-0.3382,-0.3449,-0.3744,-0.3835,-0.4214,-0.4251,-0.4373,-0.4385,-0.4304,-0.4174,-0.3988,-0.4126,-0.3706,-0.3738,-0.3641,-0.3713,-0.3831,-0.3761,-0.3403,-0.3391,-0.3382,-0.3374,0,-0.3045,-0.3203,-0.3301,-0.3527,-0.3589,-0.3628,-0.386,-0.3924,-0.4152,-0.4287,-0.434,-0.4642,-0.4648,-0.4705,-0.4722,-0.4686,-0.4497,-0.4478,-0.4119,-0.4019,-0.3708,-0.3807,-0.3785,-0.3685,-0.4121,-0.4113,-0.4107,0,-0.3228,-0.3313,-0.3547,-0.3586,-0.3675,-0.3899,-0.3988,-0.413,-0.4329,-0.4416,-0.4636,-0.4737,-0.4894,-0.4927,-0.4892,-0.4736,-0.4918,-0.4606,-0.4545,-0.4326,-0.4275,-0.4236,-0.4319,-0.4969,-0.497,-0.4971,-0.4972,0,-0.3282,-0.3546,-0.3628,-0.3706,-0.396,-0.4034,-0.4144,-0.4332,-0.4414,-0.4589,-0.466,-0.4826,-0.4876,-0.4924,-0.4882,-0.4894,-0.4894,-0.4926,-0.4598,-0.457,-0.4306,-0.4248,-0.4293,-0.4974,-0.4974,-0.4974,-0.4975,0,-0.3455,-0.3573,-0.3712,-0.3938,-0.399,-0.4075,-0.424,-0.4349,-0.4532,-0.4588,-0.4723,-0.4767,-0.4891,-0.4852,-0.4933,-0.49,-0.4831,-0.4802,-0.4797,-0.4498,-0.4378,-0.3978,-0.3994,-0.3993,-0.4626,-0.4625,-0.4624,0,-0.3446,-0.3616,-0.3753,-0.3904,-0.4001,-0.4142,-0.4249,-0.4375,-0.4451,-0.4545,-0.4646,-0.4696,-0.4695,-0.4688,-0.4773,-0.4747,-0.4762,-0.4751,-0.4651,-0.4646,-0.4352,-0.4448,-0.4172,-0.4,-0.461,-0.4611,-0.4612,0,-0.343,-0.3685,-0.3704,-0.3778,-0.3959,-0.4033,-0.4171,-0.4302,-0.4355,-0.4446,-0.4527,-0.4618,-0.462,-0.4632,-0.4615,-0.4665,-0.4722,-0.4561,-0.4562,-0.4457,-0.4747,-0.4457,-0.4437,-0.4741,-0.4746,-0.4749,-0.4601,0,-0.3551,-0.3643,-0.3699,-0.3829,-0.3916,-0.4007,-0.4123,-0.4191,-0.4205,-0.425,-0.4351,-0.4382,-0.4429,-0.4439,-0.4394,-0.4514,-0.4398,-0.4415,-0.4319,-0.4461,-0.4366,-0.4375,-0.4228,-0.4225,-0.4223,-0.4221,0,0,-0.3484,-0.3577,-0.3653,-0.3755,-0.3822,-0.3882,-0.397,-0.4028,-0.4105,-0.4139,-0.4093,-0.4186,-0.4171,-0.4267,-0.43,-0.4298,-0.4244,-0.4195,-0.4391,-0.441,-0.4427,-0.4346,-0.4357,-0.4218,-0.4217,-0.4216,-0.4216,0,-0.3523,-0.3562,-0.3619,-0.3708,-0.3821,-0.3873,-0.3899,-0.3995,-0.4005,-0.4075,-0.4039,-0.4089,-0.4075,-0.4108,-0.4112,-0.4257,-0.4126,-0.4221,-0.4294,-0.437,-0.4392,-0.4411,-0.4336,-0.4347,-0.4211,-0.4211,-0.4211,0,-0.3503,-0.3569,-0.359,-0.3709,-0.3766,-0.386,-0.3835,-0.3915,-0.3967,-0.389,-0.3924,-0.3921,-0.3908,-0.396,-0.3969,-0.3916,-0.4013,-0.3977,-0.399,-0.3993,-0.4067,-0.4093,-0.4116,-0.3814,-0.3813,-0.3811,0,0,-0.3522,-0.3568,-0.3679,-0.3722,-0.3774,-0.3828,-0.3865,-0.3877,-0.3909,-0.3903,-0.3872,-0.3854,-0.3874,-0.3855,-0.3868,-0.3907,-0.3879,-0.3929,-0.3948,-0.3963,-0.3975,-0.4053,-0.4078,-0.3806,-0.3806,-0.3806,0,0,-0.3527,-0.3634,-0.363,-0.3694,-0.3775,-0.386,-0.3888,-0.3886,-0.389,-0.3862,-0.3798,-0.3784,-0.3819,-0.3784,-0.3729,-0.3812,-0.3737,-0.3747,-0.3815,-0.3837,-0.3856,-0.3865,-0.361,0,0,0,0,0,-0.3597,-0.3636,-0.3633,-0.3653,-0.3755,-0.3874,-0.3886,-0.3878,-0.3828,-0.385,-0.3824,-0.3735,-0.3757,-0.3708,-0.3701,-0.373,-0.3743,-0.3754,-0.3765,-0.3864,-0.3889,-0.391,0,0,0,0,0,0,-0.3606,-0.3631,-0.3633,-0.3721,-0.3746,-0.387,-0.3801,-0.38,-0.3824,-0.3812,-0.3752,-0.3735,-0.3688,-0.3704,-0.3699,-0.3729,-0.3611,-0.3748,-0.3757,-0.3766,-0.3873,-0.3893,-0.391,0,0,0,0,0,-0.3613,-0.3634,-0.3789,-0.372,-0.3741,-0.3763,-0.3796,-0.3794,-0.3791,-0.376,-0.3743,-0.3782,-0.3693,-0.3682,-0.3701,-0.3733,-0.3614,-0.3613,-0.3754,-0.3761,-0.3768,-0.3883,0,0,0,0,0,0,-0.3619,-0.3619,-0.3794,-0.3801,-0.3677,-0.3754,-0.3761,-0.3789,-0.3732,-0.3724,-0.3786,-0.3777,-0.3697,-0.3687,-0.368,-0.374,-0.3616,-0.3615,-0.3614,-0.376,-0.3765,-0.3771,0,0,0,0,0,0,-0.361,-0.3625,-0.3797,-0.3743,-0.3744,-0.3745,-0.3752,-0.3753,-0.3727,-0.3756,-0.3752,-0.3782,-0.3671,-0.3692,-0.3685,-0.3692,-0.3617,-0.3616,-0.3615,-0.3615,-0.3764,-0.3769,0,0,0,0,0,0,-0.3617,-0.363,-0.374,-0.3741,-0.3741,-0.3817,-0.374,-0.3811,-0.3782,-0.3754,-0.377,-0.3764,-0.3675,-0.3669,-0.369,-0.37,-0.3694,-0.3617,-0.3616,-0.3616,-0.3615,0,0,0,0,0,0,0,-0.3622,-0.3529,-0.3762,-0.3739,-0.3739,-0.3876,-0.3876,-0.3877,-0.3781,-0.3776,-0.3771,-0.3767,-0.3625,-0.3623,-0.3622,-0.3707,0,0,-0.3617,-0.3617,0,0,0,0,0,0,0,0,-0.3524,-0.3528,-0.3762,-0.3765,-0.3767,-0.3876,-0.3876,-0.3877,-0.378,-0.3776,-0.3772,-0.3769,-0.3624,-0.3623,-0.3622,0,0,0,0,0,0,0,0,0,0,0,0,0,0,0,-0.3762,-0.3764,0,-0.3876,-0.3876,-0.3877,-0.3779,-0.3776,-0.3773,-0.377,-0.3624,-0.3623,-0.3622,0,0,0,0,0,0,0,0,0,0,0,0,0,0,0,0,0,0,0,0,0,0,0,0,0,0,0,0,0,0,0,0,0,0,0,0,0,0,0,0,0,0,0,0,0,0,0,0,0,0,0,0,0,0,0,0,0,0,0,0,0,0,0,0,0,0,0,0,0]}],[{"header":{"parameterUnit":"kt","parameterCategory":2,"dx":1,"dy":1,"la1":30.253999710083008,"la2":30.299108505249023,"lo1":-89.0895004272461,"lo2":-89.04439544677734,"nx":28,"ny":28,"refTime":"2022-10-30T21:00:00:Z","depth":"0","parameterNumber":3,"parameterNumberName":"V-component_of_CURRENTS"},"data":[-0.283,-0.2993,-0.3116,-0.335,-0.3491,-0.3679,-0.3805,-0.3958,-0.3795,-0.308,-0.206,-0.107,0.0889,0.285,0.3947,0.3996,0.4305,0.4221,0.4405,0.377,0.3676,0.3587,0.3553,0.4485,0.4486,0.5233,0.524,0.5246,-0.2824,-0.2947,-0.3132,-0.3373,-0.3525,-0.3637,-0.3892,-0.4001,-0.4129,-0.384,-0.3517,-0.1588,-0.0079,0.1285,0.2753,0.3109,0.3115,0.3238,0.3247,0.3362,0.2509,0.2448,0.316,0.316,0.3159,0.3159,0.3159,0.3158,-0.2808,-0.2913,-0.3098,-0.3312,-0.3475,-0.3686,-0.3814,-0.399,-0.4115,-0.4053,-0.3728,-0.2963,-0.1281,0.0525,0.1014,0.2016,0.1847,0.221,0.2284,0.2262,0.2419,0.1403,0.1979,0.1977,0.1975,0.1974,0.1972,0,-0.2808,-0.29,-0.3031,-0.3263,-0.3416,-0.3597,-0.3761,-0.3869,-0.395,-0.3972,-0.3767,-0.3352,-0.2097,-0.0903,0.0321,0.0817,0.1232,0.1181,0.1477,0.1674,0.1711,0.2013,0.086,0.1269,0.1263,0.1259,0.1256,0.1253,-0.2756,-0.2866,-0.3095,-0.3199,-0.3266,-0.3434,-0.3549,-0.3615,-0.3686,-0.3609,-0.3623,-0.3039,-0.2553,-0.1285,-0.0446,0.0517,0.0704,0.1021,0.0878,0.1173,0.1382,0.1379,0.1532,0.1189,0.1197,0.1204,0.1209,0,-0.2723,-0.2812,-0.2986,-0.3149,-0.3203,-0.332,-0.3442,-0.3517,-0.3497,-0.3521,-0.3498,-0.3132,-0.246,-0.1815,-0.0992,-0.0637,0.0269,0.0272,0.0341,0.0506,0.1114,0.1186,0.174,0.1975,0.0823,0.0829,0.0835,0,-0.266,-0.2766,-0.2897,-0.297,-0.3152,-0.316,-0.3286,-0.3282,-0.3264,-0.329,-0.305,-0.2967,-0.2383,-0.1902,-0.1373,-0.0633,-0.0684,-0.0209,-0.0036,0.0021,0.0044,0.0472,0.0567,-0.032,-0.0324,-0.0328,-0.0331,0,-0.2532,-0.2677,-0.2821,-0.2846,-0.2942,-0.3012,-0.3047,-0.3,-0.3012,-0.2898,-0.2868,-0.2603,-0.2412,-0.199,-0.1333,-0.1377,-0.0673,-0.0653,-0.0186,-0.0164,0.0118,0.0158,0.054,-0.0337,-0.0338,-0.0339,-0.0341,0,-0.2416,-0.2508,-0.2671,-0.2768,-0.2787,-0.2845,-0.2879,-0.2891,-0.279,-0.2702,-0.2602,-0.2398,-0.2187,-0.2029,-0.148,-0.1591,-0.1212,-0.0916,-0.0887,-0.0618,-0.0416,0.0093,0.0176,0.0484,-0.0454,-0.0457,-0.0461,0,-0.2268,-0.2427,-0.2409,-0.2534,-0.2593,-0.25,-0.2557,-0.2505,-0.2388,-0.2339,-0.2166,-0.2069,-0.1895,-0.1817,-0.1671,-0.1253,-0.111,-0.1305,-0.0648,-0.0628,-0.0496,-0.0497,-0.038,0.0102,-0.0506,-0.0501,-0.0498,0,-0.2131,-0.2192,-0.2198,-0.2239,-0.2187,-0.2192,-0.2229,-0.219,-0.2202,-0.2067,-0.206,-0.1886,-0.1747,-0.1651,-0.1471,-0.1334,-0.116,-0.1104,-0.1088,-0.0908,-0.0737,-0.0572,-0.0523,-0.1064,-0.1062,-0.1061,-0.0534,0,-0.1987,-0.2038,-0.2077,-0.2089,-0.2065,-0.2079,-0.1973,-0.1956,-0.1848,-0.1741,-0.1676,-0.1472,-0.1341,-0.1282,-0.1123,-0.1088,-0.0929,-0.0856,-0.0749,-0.0842,-0.0585,-0.0559,-0.0791,-0.0786,-0.0781,-0.0777,0,0,-0.1812,-0.1894,-0.1807,-0.1851,-0.1827,-0.1656,-0.1707,-0.1636,-0.1484,-0.145,-0.1354,-0.1145,-0.0983,-0.0951,-0.0951,-0.0858,-0.0687,-0.0844,-0.0801,-0.0805,-0.0808,-0.0573,-0.0552,-0.0769,-0.0767,-0.0766,-0.0764,0,-0.1754,-0.1732,-0.1804,-0.1757,-0.1664,-0.1584,-0.1588,-0.1454,-0.1388,-0.1324,-0.1155,-0.1061,-0.0886,-0.0791,-0.0714,-0.0795,-0.0574,-0.0744,-0.0922,-0.0767,-0.0777,-0.0785,-0.0558,-0.0543,-0.0753,-0.0754,-0.0754,0,-0.1616,-0.1585,-0.1606,-0.1561,-0.1475,-0.1479,-0.1313,-0.1274,-0.127,-0.1026,-0.0986,-0.0843,-0.0665,-0.0619,-0.0582,-0.0524,-0.0444,-0.0505,-0.0524,-0.0549,-0.0381,-0.0394,-0.0406,-0.0254,-0.0254,-0.0253,0,0,-0.1559,-0.1605,-0.1492,-0.1533,-0.1501,-0.1347,-0.1298,-0.1214,-0.1095,-0.1043,-0.0907,-0.0763,-0.066,-0.0599,-0.0488,-0.0447,-0.0291,-0.0457,-0.048,-0.0501,-0.0537,-0.0376,-0.0389,-0.0252,-0.0252,-0.0252,0,0,-0.1511,-0.1447,-0.1386,-0.1446,-0.1354,-0.1199,-0.1188,-0.1095,-0.0985,-0.0964,-0.0774,-0.073,-0.0672,-0.055,-0.0551,-0.0474,-0.0359,-0.0355,-0.0592,-0.0618,-0.0641,-0.0718,-0.0408,0,0,0,0,0,-0.138,-0.1465,-0.1411,-0.1402,-0.13,-0.1234,-0.1207,-0.107,-0.1001,-0.1008,-0.086,-0.0761,-0.051,-0.0508,-0.0473,-0.053,-0.0235,-0.0238,-0.0241,-0.0533,-0.0562,-0.0588,0,0,0,0,0,0,-0.1376,-0.1372,-0.1406,-0.1272,-0.1244,-0.1231,-0.11,-0.1062,-0.0998,-0.0981,-0.0791,-0.0755,-0.0628,-0.0515,-0.0487,-0.0545,-0.0418,-0.0236,-0.0239,-0.0241,-0.0543,-0.0567,-0.0588,0,0,0,0,0,-0.1371,-0.1368,-0.1269,-0.1265,-0.1241,-0.1068,-0.1098,-0.1066,-0.1015,-0.0818,-0.0781,-0.0916,-0.0633,-0.0597,-0.0498,-0.0562,-0.0437,-0.0426,-0.0238,-0.024,-0.0242,-0.0555,0,0,0,0,0,0,-0.1367,-0.1316,-0.1257,-0.1239,-0.1249,-0.1064,-0.1043,-0.107,-0.0853,-0.0817,-0.0935,-0.0924,-0.0636,-0.0608,-0.0582,-0.0578,-0.0452,-0.0442,-0.0435,-0.0239,-0.0241,-0.0242,0,0,0,0,0,0,-0.1315,-0.1305,-0.1248,-0.1237,-0.1217,-0.1062,-0.1043,-0.0947,-0.0852,-0.0981,-0.0965,-0.0932,-0.0663,-0.0616,-0.0594,-0.0448,-0.0464,-0.0454,-0.0447,-0.0443,-0.0241,-0.0242,0,0,0,0,0,0,-0.1305,-0.1296,-0.1241,-0.1226,-0.1208,-0.1,-0.0968,-0.0868,-0.0864,-0.0993,-0.0857,-0.0854,-0.0673,-0.0649,-0.0604,-0.0468,-0.0453,-0.0463,-0.0457,-0.0452,-0.0449,0,0,0,0,0,0,0,-0.1297,-0.143,-0.1361,-0.1216,-0.12,-0.1075,-0.107,-0.1066,-0.0863,-0.086,-0.0858,-0.0855,-0.052,-0.051,-0.0499,-0.0484,0,0,-0.0464,-0.046,0,0,0,0,0,0,0,0,-0.1427,-0.1429,-0.136,-0.1356,-0.1353,-0.1074,-0.107,-0.1067,-0.0863,-0.086,-0.0858,-0.0856,-0.0517,-0.0509,-0.05,0,0,0,0,0,0,0,0,0,0,0,0,0,0,0,-0.136,-0.1357,0,-0.1074,-0.1071,-0.1067,-0.0862,-0.086,-0.0859,-0.0857,-0.0515,-0.0508,-0.05,0,0,0,0,0,0,0,0,0,0,0,0,0,0,0,0,0,0,0,0,0,0,0,0,0,0,0,0,0,0,0,0,0,0,0,0,0,0,0,0,0,0,0,0,0,0,0,0,0,0,0,0,0,0,0,0,0,0,0,0,0,0,0,0,0,0,0,0,0]}]],[[{"header":{"parameterUnit":"kt","parameterCategory":2,"dx":1,"dy":1,"la1":30.253999710083008,"la2":30.299108505249023,"lo1":-89.0895004272461,"lo2":-89.04439544677734,"nx":28,"ny":28,"refTime":"2022-10-30T21:00:00:Z","depth":"2","parameterNumber":2,"parameterNumberName":"U-component_of_CURRENTS"},"data":[-0.3688,-0.365,-0.3549,-0.3399,-0.3384,-0.3201,-0.3118,-0.2905,-0.2686,-0.2429,-0.2162,-0.2176,-0.2164,-0.1724,-0.1673,-0.144,-0.1715,-0.1352,-0.2199,-0.2303,-0.237,-0.2572,-0.2536,0,0,0,0,0,-0.3665,-0.3642,-0.3574,-0.3604,-0.353,-0.361,-0.3572,-0.34,-0.3258,-0.3178,-0.3051,-0.2698,-0.2379,-0.2303,-0.197,-0.1968,-0.1984,-0.191,-0.194,-0.2016,-0.2085,-0.2011,-0.1328,-0.1325,-0.1323,-0.1321,0,0,-0.3619,-0.3601,-0.3634,-0.3681,-0.3723,-0.3739,-0.3675,-0.367,-0.3672,-0.3649,-0.3786,-0.3553,-0.3521,-0.2945,-0.278,-0.2657,-0.2899,-0.2816,-0.2847,-0.2886,-0.2845,-0.2754,-0.2388,-0.2392,-0.2396,-0.24,-0.2403,0,-0.3636,-0.3654,-0.3699,-0.3766,-0.3812,-0.3847,-0.3892,-0.3946,-0.412,-0.4153,-0.4175,-0.4173,-0.4015,-0.3648,-0.3449,-0.3291,-0.3527,-0.3311,-0.3966,-0.3304,-0.3215,-0.3159,-0.3199,-0.295,-0.2958,-0.2964,-0.2969,-0.2972,-0.3659,-0.3673,-0.3794,-0.3822,-0.3877,-0.395,-0.4028,-0.4202,-0.421,-0.4469,-0.4472,-0.4548,-0.4459,-0.4266,-0.4108,-0.3867,-0.4066,-0.3503,-0.3504,-0.4047,-0.3987,-0.3998,-0.4008,-0.3058,-0.3047,-0.3038,-0.3031,0,-0.3663,-0.3736,-0.38,-0.3937,-0.3986,-0.4037,-0.4176,-0.4246,-0.4413,-0.4528,-0.4591,-0.4766,-0.4679,-0.4661,-0.4573,-0.4482,-0.4339,-0.4235,-0.3866,-0.3755,-0.4044,-0.4045,-0.3933,-0.3925,-0.3919,-0.3914,-0.3909,0,-0.3716,-0.3782,-0.3874,-0.3925,-0.4013,-0.4108,-0.4205,-0.4349,-0.4499,-0.4585,-0.4736,-0.4786,-0.4846,-0.481,-0.4716,-0.4509,-0.4606,-0.4385,-0.4311,-0.4032,-0.3988,-0.4529,-0.4525,-0.4585,-0.4586,-0.4588,-0.4589,0,-0.3741,-0.3849,-0.391,-0.3945,-0.4099,-0.4153,-0.4248,-0.4418,-0.4505,-0.4664,-0.4731,-0.4804,-0.4829,-0.4788,-0.4704,-0.472,-0.4632,-0.4623,-0.4368,-0.435,-0.4027,-0.3978,-0.4591,-0.4591,-0.4591,-0.4592,-0.4592,0,-0.3785,-0.3864,-0.3946,-0.4042,-0.4077,-0.4145,-0.4308,-0.4406,-0.4567,-0.4619,-0.4701,-0.474,-0.4807,-0.4769,-0.4733,-0.4751,-0.4664,-0.4631,-0.4621,-0.4444,-0.433,-0.3858,-0.3783,-0.4432,-0.4433,-0.4433,-0.4433,0,-0.3763,-0.3863,-0.393,-0.4017,-0.4061,-0.4154,-0.4264,-0.4373,-0.4445,-0.4543,-0.4591,-0.466,-0.4634,-0.4656,-0.4679,-0.465,-0.4633,-0.4668,-0.4514,-0.4508,-0.4335,-0.4356,-0.4012,-0.3808,-0.4435,-0.4435,-0.4435,0,-0.3739,-0.3845,-0.3867,-0.3895,-0.402,-0.4067,-0.4185,-0.4298,-0.4367,-0.4434,-0.4516,-0.4579,-0.4578,-0.4598,-0.4596,-0.4625,-0.462,-0.4574,-0.4572,-0.4481,-0.4555,-0.4375,-0.4355,-0.462,-0.4622,-0.4623,-0.4436,0,-0.3729,-0.3796,-0.3825,-0.3938,-0.3995,-0.4042,-0.4126,-0.4198,-0.4237,-0.4282,-0.4366,-0.4372,-0.4422,-0.4448,-0.4433,-0.4523,-0.4455,-0.4448,-0.4412,-0.4479,-0.4378,-0.4378,-0.4367,-0.4366,-0.4365,-0.4364,0,0,-0.3672,-0.3762,-0.3825,-0.3884,-0.3921,-0.3973,-0.4029,-0.4083,-0.4145,-0.418,-0.4166,-0.4252,-0.4258,-0.4341,-0.438,-0.4359,-0.4318,-0.4384,-0.4444,-0.4453,-0.4461,-0.4371,-0.4372,-0.4362,-0.4361,-0.4361,-0.436,0,-0.368,-0.3752,-0.3809,-0.3855,-0.3915,-0.3959,-0.398,-0.4044,-0.4084,-0.4127,-0.4137,-0.4176,-0.4207,-0.4251,-0.4266,-0.4332,-0.4294,-0.435,-0.4433,-0.4433,-0.4444,-0.4453,-0.4367,-0.4368,-0.4358,-0.4358,-0.4358,0,-0.3663,-0.3724,-0.3758,-0.3858,-0.3888,-0.3949,-0.3947,-0.3994,-0.4049,-0.4018,-0.4094,-0.41,-0.4112,-0.4168,-0.4192,-0.4173,-0.4247,-0.4245,-0.4251,-0.4284,-0.4283,-0.4295,-0.4306,-0.4161,-0.416,-0.416,0,0,-0.3667,-0.3734,-0.3803,-0.3862,-0.3887,-0.3925,-0.3948,-0.3981,-0.4008,-0.4026,-0.4052,-0.4073,-0.4099,-0.4117,-0.4139,-0.4168,-0.4138,-0.4222,-0.4231,-0.4239,-0.4275,-0.4277,-0.4289,-0.4158,-0.4158,-0.4158,0,0,-0.366,-0.3754,-0.3776,-0.3859,-0.3903,-0.3946,-0.3969,-0.3991,-0.4022,-0.4022,-0.403,-0.4035,-0.4086,-0.408,-0.4051,-0.416,-0.4121,-0.4126,-0.4168,-0.4179,-0.4188,-0.423,-0.4062,0,0,0,0,0,-0.3685,-0.3739,-0.3759,-0.3778,-0.3877,-0.3931,-0.394,-0.3983,-0.3987,-0.4023,-0.4026,-0.4036,-0.4083,-0.4056,-0.4056,-0.4123,-0.4131,-0.4136,-0.414,-0.4201,-0.4213,-0.4223,0,0,0,0,0,0,-0.3693,-0.3719,-0.3756,-0.3803,-0.3824,-0.393,-0.3936,-0.3949,-0.3987,-0.3995,-0.403,-0.4035,-0.4042,-0.4056,-0.4056,-0.4121,-0.4062,-0.4133,-0.4137,-0.414,-0.4205,-0.4215,-0.4224,0,0,0,0,0,-0.3699,-0.372,-0.3885,-0.3801,-0.382,-0.3877,-0.3938,-0.3949,-0.399,-0.4,-0.4009,-0.4026,-0.4041,-0.4043,-0.4056,-0.4122,-0.4062,-0.4062,-0.4135,-0.4139,-0.4141,-0.421,0,0,0,0,0,0,-0.3703,-0.372,-0.3888,-0.3892,-0.3813,-0.3873,-0.3892,-0.3948,-0.3994,-0.4003,-0.3992,-0.3997,-0.4039,-0.4042,-0.4043,-0.4125,-0.4062,-0.4062,-0.4062,-0.4138,-0.414,-0.4143,0,0,0,0,0,0,-0.3708,-0.3724,-0.389,-0.3904,-0.391,-0.387,-0.3887,-0.3881,-0.3993,-0.3985,-0.3991,-0.3994,-0.4027,-0.404,-0.4042,-0.4031,-0.4062,-0.4062,-0.4062,-0.4062,-0.414,-0.4142,0,0,0,0,0,0,-0.3714,-0.3728,-0.3903,-0.3908,-0.3913,-0.3965,-0.3863,-0.3961,-0.4017,-0.3981,-0.4021,-0.4023,-0.4024,-0.4027,-0.404,-0.4029,-0.403,-0.4062,-0.4062,-0.4062,-0.4062,0,0,0,0,0,0,0,-0.3719,-0.3635,-0.386,-0.3911,-0.3916,-0.3928,-0.393,-0.3931,-0.4017,-0.4019,-0.4021,-0.4022,-0.4062,-0.4062,-0.4062,-0.4027,0,0,-0.4062,-0.4062,0,0,0,0,0,0,0,0,-0.3629,-0.3634,-0.3861,-0.3861,-0.3862,-0.3929,-0.393,-0.3931,-0.4018,-0.4019,-0.402,-0.4022,-0.4062,-0.4062,-0.4062,0,0,0,0,0,0,0,0,0,0,0,0,0,0,0,-0.3861,-0.3861,0,-0.3929,-0.393,-0.3931,-0.4018,-0.4019,-0.402,-0.4021,-0.4062,-0.4062,-0.4062,0,0,0,0,0,0,0,0,0,0,0,0,0,0,0,0,0,0,0,0,0,0,0,0,0,0,0,0,0,0,0,0,0,0,0,0,0,0,0,0,0,0,0,0,0,0,0,0,0,0,0,0,0,0,0,0,0,0,0,0,0,0,0,0,0,0,0,0,0]}],[{"header":{"parameterUnit":"kt","parameterCategory":2,"dx":1,"dy":1,"la1":30.253999710083008,"la2":30.299108505249023,"lo1":-89.0895004272461,"lo2":-89.04439544677734,"nx":28,"ny":28,"refTime":"2022-10-30T21:00:00:Z","depth":"2","parameterNumber":3,"parameterNumberName":"V-component_of_CURRENTS"},"data":[-0.0736,-0.0834,-0.0873,-0.109,-0.1237,-0.1402,-0.1461,-0.1441,-0.1171,-0.082,-0.0376,0.0168,0.0722,0.1002,0.125,0.1472,0.1404,0.1454,0.1413,0.126,0.1246,0.1392,0.1332,0,0,0,0,0,-0.0694,-0.0779,-0.0881,-0.1053,-0.1178,-0.1255,-0.1346,-0.134,-0.132,-0.0971,-0.0638,0.0009,0.0554,0.0962,0.1383,0.1604,0.1546,0.1593,0.1498,0.1486,0.1475,0.1444,0.1598,0.1598,0.1598,0.1599,0,0,-0.0628,-0.0695,-0.0789,-0.0931,-0.1065,-0.1191,-0.1254,-0.1238,-0.1228,-0.1047,-0.0727,-0.0251,0.016,0.0915,0.118,0.1408,0.1403,0.1468,0.1459,0.1449,0.1423,0.1385,0.1568,0.1568,0.1568,0.1568,0.1568,0,-0.0577,-0.0606,-0.0686,-0.0845,-0.0942,-0.1042,-0.1088,-0.1118,-0.1022,-0.0944,-0.0718,-0.0483,0.0073,0.055,0.1008,0.1197,0.1231,0.1333,0.1248,0.1226,0.1181,0.1212,0.1197,0.1331,0.133,0.1329,0.1329,0.1328,-0.048,-0.0545,-0.0667,-0.0741,-0.0781,-0.0856,-0.0914,-0.0873,-0.0845,-0.067,-0.0643,-0.0373,-0.0089,0.0419,0.0762,0.1123,0.1105,0.1291,0.1289,0.1166,0.1203,0.1187,0.1173,0.1314,0.1316,0.1317,0.1319,0,-0.043,-0.0466,-0.0568,-0.0631,-0.0669,-0.0725,-0.0751,-0.0758,-0.0659,-0.0614,-0.0591,-0.0319,-0.0033,0.0244,0.057,0.0762,0.1014,0.1113,0.1051,0.1096,0.1163,0.1152,0.131,0.1314,0.1317,0.1319,0.1321,0,-0.0351,-0.0422,-0.0473,-0.0527,-0.0618,-0.0571,-0.0604,-0.0565,-0.0486,-0.0455,-0.0272,-0.0177,0.0097,0.0296,0.0499,0.0793,0.0779,0.0984,0.1038,0.1008,0.101,0.0951,0.0947,0.0971,0.097,0.0969,0.0968,0,-0.0272,-0.0338,-0.0419,-0.043,-0.0449,-0.0461,-0.0458,-0.0362,-0.0347,-0.0224,-0.0185,0.0005,0.0097,0.0284,0.0532,0.0524,0.0788,0.0812,0.0986,0.099,0.1048,0.1055,0.0967,0.0967,0.0966,0.0966,0.0966,0,-0.0186,-0.0243,-0.0328,-0.0359,-0.0368,-0.0375,-0.0341,-0.0317,-0.0195,-0.013,-0.0012,0.0095,0.0229,0.0295,0.0539,0.0487,0.0614,0.0719,0.0728,0.0829,0.0879,0.0964,0.0998,0.0835,0.0833,0.0831,0.083,0,-0.0121,-0.0202,-0.0175,-0.0233,-0.0275,-0.0201,-0.0187,-0.0124,-0.0045,0.0013,0.0151,0.0215,0.0314,0.0347,0.0441,0.0577,0.0647,0.0578,0.0794,0.08,0.084,0.0862,0.0847,0.0971,0.0811,0.0813,0.0815,0,-0.0055,-0.0079,-0.0086,-0.0115,-0.0074,-0.0073,-0.0048,-0.0003,0.0018,0.0112,0.0149,0.0275,0.0349,0.0407,0.0493,0.0563,0.062,0.0612,0.0619,0.0651,0.0772,0.0828,0.0847,0.0661,0.0663,0.0664,0.08,0,-0.0002,-0.0022,-0.0036,-0.0037,-0.0018,-0.0022,0.0038,0.0067,0.0118,0.0182,0.0262,0.0367,0.0458,0.0495,0.0544,0.0608,0.063,0.067,0.0706,0.0694,0.0755,0.0766,0.0661,0.0663,0.0665,0.0666,0,0,0.0057,0.0033,0.0078,0.0061,0.0069,0.0146,0.0123,0.0173,0.0248,0.0278,0.0304,0.0448,0.0523,0.0599,0.0598,0.0637,0.0681,0.0643,0.0695,0.0698,0.0701,0.0758,0.0767,0.0669,0.0669,0.067,0.0671,0,0.0078,0.0099,0.0075,0.0098,0.0134,0.0173,0.0173,0.0233,0.0271,0.0309,0.0384,0.0451,0.0535,0.0608,0.0654,0.0651,0.0726,0.0672,0.0628,0.0706,0.0706,0.0707,0.0763,0.077,0.0674,0.0674,0.0674,0,0.0119,0.014,0.014,0.0173,0.0204,0.0206,0.0271,0.0296,0.0312,0.0406,0.0439,0.0507,0.0597,0.0644,0.0671,0.0691,0.0767,0.0739,0.0733,0.0733,0.0816,0.0816,0.0816,0.0816,0.0816,0.0816,0,0,0.0134,0.0131,0.018,0.0182,0.0189,0.0255,0.0278,0.0318,0.0372,0.0396,0.0461,0.0532,0.0593,0.0629,0.0689,0.0729,0.0785,0.0751,0.0745,0.0739,0.0735,0.0816,0.0816,0.0816,0.0816,0.0816,0,0,0.0151,0.0188,0.0209,0.0206,0.0248,0.0319,0.0325,0.0367,0.0419,0.0425,0.051,0.0531,0.0577,0.0634,0.062,0.0708,0.0743,0.0747,0.0658,0.0651,0.0644,0.0622,0.069,0,0,0,0,0,0.0195,0.0178,0.0197,0.0204,0.0264,0.0304,0.0316,0.0376,0.04,0.0405,0.0465,0.0517,0.0647,0.0637,0.0655,0.0663,0.0813,0.0813,0.0814,0.071,0.0702,0.0695,0,0,0,0,0,0,0.0198,0.0204,0.0198,0.0261,0.0277,0.0304,0.0353,0.037,0.0401,0.0408,0.0502,0.0519,0.0578,0.0633,0.0648,0.0654,0.0685,0.0813,0.0814,0.0814,0.0708,0.0701,0.0695,0,0,0,0,0,0.0201,0.0206,0.0279,0.0264,0.0277,0.0353,0.0354,0.0368,0.0396,0.0485,0.0503,0.0438,0.0576,0.0594,0.0642,0.0646,0.0675,0.068,0.0813,0.0814,0.0814,0.0704,0,0,0,0,0,0,0.0203,0.0229,0.0285,0.0292,0.0268,0.0353,0.0365,0.0366,0.0473,0.0489,0.0425,0.043,0.0575,0.0589,0.0603,0.0639,0.0667,0.0672,0.0676,0.0814,0.0814,0.0814,0,0,0,0,0,0,0.0227,0.0235,0.0289,0.029,0.0299,0.0353,0.0364,0.0417,0.0474,0.0407,0.0414,0.0426,0.0561,0.0585,0.0596,0.0677,0.066,0.0666,0.0669,0.0672,0.0814,0.0814,0,0,0,0,0,0,0.0232,0.0239,0.0289,0.0296,0.0303,0.0396,0.0404,0.0467,0.0459,0.0402,0.0461,0.0463,0.0556,0.0568,0.0591,0.0667,0.0674,0.0661,0.0664,0.0667,0.0668,0,0,0,0,0,0,0,0.0237,0.0167,0.0237,0.03,0.0307,0.0363,0.0366,0.0368,0.0459,0.046,0.0461,0.0462,0.063,0.0636,0.0642,0.0659,0,0,0.066,0.0663,0,0,0,0,0,0,0,0,0.0167,0.0167,0.0237,0.0238,0.024,0.0364,0.0366,0.0368,0.0459,0.046,0.0461,0.0462,0.0632,0.0637,0.0641,0,0,0,0,0,0,0,0,0,0,0,0,0,0,0,0.0237,0.0238,0,0.0364,0.0366,0.0367,0.0459,0.046,0.0461,0.0461,0.0633,0.0637,0.0641,0,0,0,0,0,0,0,0,0,0,0,0,0,0,0,0,0,0,0,0,0,0,0,0,0,0,0,0,0,0,0,0,0,0,0,0,0,0,0,0,0,0,0,0,0,0,0,0,0,0,0,0,0,0,0,0,0,0,0,0,0,0,0,0,0,0,0,0,0]}]],[[{"header":{"parameterUnit":"kt","parameterCategory":2,"dx":1,"dy":1,"la1":30.253999710083008,"la2":30.299108505249023,"lo1":-89.0895004272461,"lo2":-89.04439544677734,"nx":28,"ny":28,"refTime":"2022-10-30T21:00:00:Z","depth":"4","parameterNumber":2,"parameterNumberName":"U-component_of_CURRENTS"},"data":[-0.1768,-0.1791,-0.1801,-0.163,-0.1575,-0.1591,-0.1661,-0.1836,-0.1805,-0.2095,-0.209,-0.2355,-0.2362,-0.2543,-0.2406,-0.243,-0.2514,-0.2679,-0.2672,-0.2951,-0.2983,-0.3013,-0.2954,0,0,0,0,0,-0.1879,-0.1843,-0.189,-0.1895,-0.1957,-0.1984,-0.2125,-0.2246,-0.2487,-0.2387,-0.2555,-0.2534,-0.2531,-0.2637,-0.2472,-0.2756,-0.2827,-0.2557,-0.2781,-0.2971,-0.3007,-0.2938,0,0,0,0,0,0,-0.2031,-0.2045,-0.2132,-0.2174,-0.2255,-0.2205,-0.2327,-0.2355,-0.2452,-0.2748,-0.2735,-0.2894,-0.3095,-0.2998,-0.296,-0.2885,-0.2842,-0.2787,-0.2831,-0.2867,-0.2777,-0.2649,-0.2314,0,0,0,0,0,-0.2134,-0.2225,-0.2309,-0.2385,-0.2462,-0.2538,-0.2639,-0.2658,-0.2884,-0.3136,-0.3138,-0.3173,-0.3166,-0.319,-0.3142,-0.3095,-0.3411,-0.3271,-0.329,-0.3299,-0.3238,-0.321,-0.3229,-0.3145,-0.315,-0.3153,-0.3155,0,-0.2249,-0.2296,-0.2505,-0.2548,-0.264,-0.2781,-0.2848,-0.3083,-0.313,-0.3397,-0.3383,-0.3514,-0.3604,-0.341,-0.3533,-0.3448,-0.3409,-0.3366,-0.3376,-0.3297,-0.3258,-0.3268,-0.3276,-0.3184,-0.3182,-0.3179,-0.3177,0,-0.2303,-0.2426,-0.2539,-0.2742,-0.281,-0.2887,-0.3096,-0.3166,-0.3377,-0.3481,-0.3536,-0.3753,-0.3759,-0.3844,-0.3866,-0.3768,-0.3684,-0.358,-0.3873,-0.3842,-0.3331,-0.3327,-0.3232,-0.3221,-0.3212,-0.3205,-0.3198,0,-0.2413,-0.2496,-0.2675,-0.2727,-0.2849,-0.3002,-0.3145,-0.328,-0.3459,-0.354,-0.3738,-0.3794,-0.3947,-0.3978,-0.3959,-0.3802,-0.3968,-0.3652,-0.36,-0.3908,-0.3902,-0.3879,-0.387,-0.3967,-0.3968,-0.3968,-0.3968,0,-0.2452,-0.2614,-0.2703,-0.2765,-0.2962,-0.3051,-0.3154,-0.3347,-0.3447,-0.3644,-0.3722,-0.3864,-0.3923,-0.3946,-0.3942,-0.3947,-0.3961,-0.3957,-0.3654,-0.3632,-0.3878,-0.3868,-0.3969,-0.3969,-0.3969,-0.3969,-0.397,0,-0.2538,-0.261,-0.2722,-0.2892,-0.2935,-0.3025,-0.3216,-0.3327,-0.3513,-0.3605,-0.3727,-0.3794,-0.3899,-0.3872,-0.3935,-0.3929,-0.3895,-0.3884,-0.3881,-0.3588,-0.3502,-0.3691,-0.3794,-0.3793,-0.3793,-0.3792,-0.3791,0,-0.2547,-0.2642,-0.2719,-0.2844,-0.2908,-0.3031,-0.3148,-0.3277,-0.3391,-0.3519,-0.3609,-0.3718,-0.3725,-0.3771,-0.3818,-0.3835,-0.3846,-0.3836,-0.3785,-0.3782,-0.3502,-0.3531,-0.3842,-0.3782,-0.3783,-0.3784,-0.3784,0,-0.2533,-0.2669,-0.2685,-0.2751,-0.2882,-0.2934,-0.3069,-0.3194,-0.3289,-0.3404,-0.3519,-0.3641,-0.367,-0.3712,-0.3738,-0.3774,-0.3822,-0.3743,-0.3742,-0.3697,-0.3844,-0.3553,-0.3531,-0.3831,-0.3833,-0.3835,-0.3778,0,-0.2584,-0.2651,-0.2679,-0.2768,-0.2835,-0.2902,-0.3001,-0.3092,-0.3171,-0.3239,-0.3385,-0.3444,-0.3539,-0.3575,-0.3583,-0.3689,-0.3646,-0.3638,-0.3589,-0.3671,-0.3631,-0.3636,-0.3546,-0.3544,-0.3543,-0.3542,0,0,-0.2559,-0.2606,-0.2649,-0.2702,-0.2761,-0.2826,-0.2888,-0.296,-0.3069,-0.3131,-0.314,-0.3312,-0.3356,-0.3471,-0.3513,-0.3528,-0.3514,-0.3531,-0.3632,-0.3643,-0.3652,-0.3618,-0.3625,-0.3539,-0.3539,-0.3539,-0.3538,0,-0.2548,-0.2599,-0.2628,-0.2686,-0.2764,-0.2804,-0.2834,-0.2915,-0.2977,-0.3085,-0.3114,-0.3197,-0.3305,-0.3354,-0.3389,-0.3499,-0.3472,-0.3527,-0.3592,-0.362,-0.3632,-0.3642,-0.3611,-0.3619,-0.3535,-0.3535,-0.3535,0,-0.2537,-0.257,-0.2593,-0.2661,-0.2709,-0.2769,-0.2776,-0.2844,-0.2915,-0.2925,-0.3051,-0.3094,-0.3145,-0.3245,-0.3296,-0.3272,-0.3414,-0.3392,-0.34,-0.3406,-0.3431,-0.3446,-0.3459,-0.329,-0.3289,-0.3288,0,0,-0.253,-0.2563,-0.2621,-0.2662,-0.2692,-0.2751,-0.2788,-0.2825,-0.2884,-0.2918,-0.2981,-0.3047,-0.3113,-0.316,-0.3215,-0.3304,-0.3286,-0.3363,-0.3374,-0.3384,-0.3395,-0.3423,-0.3438,-0.3285,-0.3285,-0.3285,0,0,-0.2521,-0.2574,-0.2603,-0.2646,-0.2703,-0.2749,-0.2789,-0.2823,-0.2896,-0.2916,-0.2953,-0.2971,-0.3081,-0.3095,-0.3053,-0.3217,-0.3168,-0.3177,-0.3213,-0.3227,-0.3239,-0.3237,-0.3042,0,0,0,0,0,-0.2538,-0.2563,-0.2589,-0.2603,-0.2681,-0.2736,-0.2748,-0.2798,-0.282,-0.2855,-0.2913,-0.2919,-0.3081,-0.3044,-0.306,-0.3133,-0.3248,-0.3255,-0.3261,-0.3328,-0.3343,-0.3356,0,0,0,0,0,0,-0.2544,-0.2559,-0.2588,-0.263,-0.2649,-0.2734,-0.2738,-0.2751,-0.2818,-0.2825,-0.2907,-0.292,-0.2937,-0.3037,-0.3051,-0.3121,-0.3037,-0.3251,-0.3256,-0.3261,-0.3333,-0.3345,-0.3356,0,0,0,0,0,-0.2548,-0.2561,-0.2673,-0.2631,-0.2647,-0.2717,-0.2738,-0.275,-0.2811,-0.2856,-0.2871,-0.2853,-0.2935,-0.2952,-0.3046,-0.3114,-0.3027,-0.3033,-0.3254,-0.3259,-0.3263,-0.3339,0,0,0,0,0,0,-0.2552,-0.257,-0.2677,-0.2685,-0.2634,-0.2716,-0.2729,-0.2748,-0.284,-0.2855,-0.2799,-0.2803,-0.2934,-0.2947,-0.296,-0.3112,-0.3019,-0.3025,-0.3028,-0.3258,-0.3261,-0.3264,0,0,0,0,0,0,-0.2564,-0.2575,-0.2681,-0.2682,-0.269,-0.2714,-0.2726,-0.2778,-0.2842,-0.2779,-0.2784,-0.28,-0.2925,-0.2944,-0.2954,-0.3033,-0.3013,-0.3018,-0.3022,-0.3024,-0.3261,-0.3263,0,0,0,0,0,0,-0.257,-0.258,-0.268,-0.2686,-0.2693,-0.2777,-0.2762,-0.2846,-0.2825,-0.2774,-0.2827,-0.2827,-0.2921,-0.2932,-0.295,-0.3024,-0.3031,-0.3014,-0.3017,-0.3019,-0.3021,0,0,0,0,0,0,0,-0.2575,-0.2495,-0.2636,-0.2689,-0.2696,-0.2752,-0.2754,-0.2756,-0.2825,-0.2826,-0.2826,-0.2827,-0.2984,-0.299,-0.2996,-0.3016,0,0,-0.3013,-0.3015,0,0,0,0,0,0,0,0,-0.2493,-0.2495,-0.2637,-0.2638,-0.264,-0.2753,-0.2754,-0.2756,-0.2825,-0.2826,-0.2826,-0.2827,-0.2986,-0.299,-0.2995,0,0,0,0,0,0,0,0,0,0,0,0,0,0,0,-0.2637,-0.2638,0,-0.2753,-0.2754,-0.2755,-0.2825,-0.2826,-0.2826,-0.2827,-0.2987,-0.2991,-0.2995,0,0,0,0,0,0,0,0,0,0,0,0,0,0,0,0,0,0,0,0,0,0,0,0,0,0,0,0,0,0,0,0,0,0,0,0,0,0,0,0,0,0,0,0,0,0,0,0,0,0,0,0,0,0,0,0,0,0,0,0,0,0,0,0,0,0,0,0,0]}],[{"header":{"parameterUnit":"kt","parameterCategory":2,"dx":1,"dy":1,"la1":30.253999710083008,"la2":30.299108505249023,"lo1":-89.0895004272461,"lo2":-89.04439544677734,"nx":28,"ny":28,"refTime":"2022-10-30T21:00:00:Z","depth":"4","parameterNumber":3,"parameterNumberName":"V-component_of_CURRENTS"},"data":[-0.0372,-0.0446,-0.0484,-0.0575,-0.0619,-0.071,-0.0759,-0.0748,-0.0684,-0.06,-0.0404,-0.0268,0.0087,-0.0032,0.0449,0.0513,0.0597,0.0934,0.0938,0.1069,0.1069,0.1069,0.1012,0,0,0,0,0,-0.0359,-0.0403,-0.0497,-0.0588,-0.0678,-0.071,-0.08,-0.0816,-0.0767,-0.0652,-0.0571,-0.0327,0.0046,0.0233,0.0422,0.0522,0.0798,0.0746,0.0848,0.1069,0.1069,0.1014,0,0,0,0,0,0,-0.0343,-0.0395,-0.0467,-0.0552,-0.0648,-0.0721,-0.0764,-0.0731,-0.0715,-0.0558,-0.0488,-0.0187,0.0007,0.0332,0.0538,0.0733,0.0786,0.083,0.0843,0.0846,0.0766,0.0642,0.0683,0,0,0,0,0,-0.0313,-0.0342,-0.0405,-0.0513,-0.0584,-0.0662,-0.0704,-0.0717,-0.0649,-0.0587,-0.0396,-0.0175,0.0082,0.0383,0.06,0.0807,0.0963,0.1021,0.1023,0.1034,0.0963,0.0979,0.0969,0.107,0.107,0.107,0.107,0,-0.0245,-0.0298,-0.0392,-0.0447,-0.0481,-0.0545,-0.0582,-0.0554,-0.0542,-0.0399,-0.0369,-0.0143,0.0027,0.0382,0.0628,0.0906,0.0954,0.102,0.1031,0.0961,0.098,0.0969,0.0959,0.107,0.107,0.107,0.107,0,-0.0206,-0.0239,-0.0322,-0.0375,-0.0399,-0.0445,-0.0475,-0.0477,-0.0402,-0.035,-0.0318,-0.009,0.0134,0.0362,0.0638,0.0753,0.0939,0.0997,0.0899,0.0923,0.0965,0.0954,0.107,0.107,0.107,0.107,0.107,0,-0.015,-0.0203,-0.0249,-0.0291,-0.036,-0.034,-0.037,-0.0332,-0.0264,-0.0231,-0.0071,0.0012,0.0264,0.0428,0.0584,0.0782,0.0817,0.0914,0.0945,0.0905,0.0894,0.0941,0.0933,0.0997,0.0997,0.0996,0.0996,0,-0.0083,-0.0143,-0.0209,-0.0224,-0.025,-0.0262,-0.0263,-0.0185,-0.0168,-0.0052,-0.0014,0.016,0.0248,0.0412,0.0603,0.0602,0.0823,0.0849,0.0915,0.0912,0.0934,0.0928,0.0995,0.0995,0.0995,0.0994,0.0994,0,-0.0027,-0.0069,-0.0139,-0.018,-0.0189,-0.0201,-0.0175,-0.0156,-0.0048,0.0004,0.0113,0.0205,0.0337,0.0387,0.06,0.0555,0.0655,0.0743,0.075,0.0753,0.0767,0.0767,0.0802,0.08,0.0799,0.0797,0.0796,0,0.0023,-0.0044,-0.0034,-0.0085,-0.0121,-0.0076,-0.0064,-0.0016,0.0046,0.01,0.0222,0.0282,0.0351,0.0385,0.0482,0.0592,0.0662,0.0601,0.0768,0.0772,0.0739,0.0772,0.0694,0.0774,0.0777,0.0779,0.078,0,0.007,0.0034,0.003,-0.0,0.0016,0.0011,0.0035,0.0067,0.0087,0.0163,0.0202,0.0308,0.0366,0.0411,0.0478,0.0559,0.0629,0.0591,0.0596,0.061,0.0776,0.0747,0.0757,0.0681,0.0683,0.0686,0.0765,0,0.0087,0.007,0.006,0.005,0.0059,0.0047,0.0085,0.0108,0.0144,0.0188,0.026,0.0341,0.0414,0.0447,0.0479,0.0559,0.0559,0.0596,0.062,0.0634,0.0663,0.0675,0.0548,0.0549,0.055,0.055,0,0,0.0128,0.0106,0.0134,0.0116,0.0114,0.0158,0.0137,0.0172,0.0216,0.0241,0.0256,0.0372,0.0426,0.05,0.0505,0.0531,0.0564,0.0536,0.0617,0.0624,0.0631,0.066,0.0671,0.0552,0.0552,0.0552,0.0552,0,0.0133,0.0149,0.0134,0.014,0.0153,0.0172,0.0172,0.0202,0.0228,0.0255,0.0306,0.0365,0.0424,0.0484,0.0519,0.0533,0.0583,0.0547,0.0535,0.0621,0.0626,0.0632,0.0661,0.067,0.0554,0.0554,0.0554,0,0.0155,0.0162,0.0165,0.0178,0.0192,0.0188,0.0225,0.0236,0.0245,0.0305,0.0333,0.0382,0.0446,0.0488,0.0512,0.0524,0.0604,0.0572,0.057,0.057,0.066,0.0666,0.0671,0.0602,0.0602,0.0602,0,0,0.0158,0.0158,0.0179,0.0181,0.0184,0.0216,0.0228,0.0248,0.028,0.0297,0.0341,0.0393,0.044,0.047,0.0511,0.0551,0.0592,0.0575,0.0573,0.0571,0.057,0.0658,0.0664,0.0601,0.0601,0.0601,0,0,0.0164,0.018,0.0191,0.0194,0.021,0.0244,0.0249,0.0272,0.0308,0.0314,0.037,0.0385,0.0425,0.0463,0.0449,0.0528,0.0541,0.0544,0.0498,0.0496,0.0494,0.0481,0.0492,0,0,0,0,0,0.0178,0.0175,0.0183,0.0187,0.022,0.0235,0.0242,0.0275,0.0292,0.0295,0.0338,0.0371,0.0469,0.0458,0.0471,0.0489,0.0594,0.0596,0.0597,0.0547,0.0544,0.0542,0,0,0,0,0,0,0.018,0.0183,0.0184,0.0214,0.0222,0.0236,0.0264,0.0273,0.0292,0.0297,0.0361,0.0373,0.0411,0.0454,0.0466,0.0482,0.0488,0.0595,0.0596,0.0597,0.0546,0.0544,0.0542,0,0,0,0,0,0.0181,0.0184,0.0223,0.0215,0.0222,0.0263,0.0265,0.0273,0.0291,0.0348,0.036,0.0314,0.0409,0.0422,0.0461,0.0476,0.0481,0.0485,0.0596,0.0596,0.0597,0.0545,0,0,0,0,0,0,0.0182,0.0198,0.0226,0.023,0.0218,0.0264,0.027,0.0272,0.0343,0.0353,0.0304,0.0307,0.0408,0.0419,0.0428,0.0472,0.0475,0.0479,0.0481,0.0596,0.0597,0.0597,0,0,0,0,0,0,0.0197,0.0201,0.0228,0.023,0.0235,0.0264,0.027,0.031,0.0344,0.0296,0.03,0.0305,0.0402,0.0416,0.0424,0.0484,0.047,0.0474,0.0477,0.0478,0.0597,0.0597,0,0,0,0,0,0,0.02,0.0203,0.0229,0.0233,0.0237,0.0287,0.0302,0.034,0.0324,0.0293,0.0326,0.0326,0.0399,0.0408,0.042,0.0477,0.0482,0.047,0.0473,0.0475,0.0476,0,0,0,0,0,0,0,0.0202,0.0164,0.02,0.0235,0.0239,0.0268,0.0269,0.027,0.0324,0.0325,0.0325,0.0326,0.0448,0.0452,0.0456,0.0471,0,0,0.047,0.0472,0,0,0,0,0,0,0,0,0.0164,0.0164,0.02,0.0201,0.0201,0.0268,0.0269,0.027,0.0324,0.0325,0.0325,0.0326,0.0449,0.0452,0.0456,0,0,0,0,0,0,0,0,0,0,0,0,0,0,0,0.02,0.02,0,0.0268,0.0269,0.027,0.0324,0.0325,0.0325,0.0326,0.045,0.0453,0.0456,0,0,0,0,0,0,0,0,0,0,0,0,0,0,0,0,0,0,0,0,0,0,0,0,0,0,0,0,0,0,0,0,0,0,0,0,0,0,0,0,0,0,0,0,0,0,0,0,0,0,0,0,0,0,0,0,0,0,0,0,0,0,0,0,0,0,0,0,0]}]]]